Showing default

XCUBE-1, 62400

Orbit data source: Space-Track

XCUBE-1, 62400 is an American payload satellite in LEO that was launched on Sat, 21 Dec 2024 UTC via an FALCON 9 launch vehicle from the Air Force Western Test Range (AFWTR). Payloads include a variety of satellites, spacecraft, and rockets equipped with specific instruments for various scientific and technological missions. These include communications satellites like Starlink; space stations such as the ISS; scientific satellites like the Hubble; Earth observation satellites from companies like Planet Labs, Umbra, and HawkEye 360; GPS; miniature CubeSats for education and research; and military/defense satellites.

Loading next visibility...
XCUBE-1 details
Identifier
62400, 2024-247Z
Orbit
LEO
Last TLE update19 hours ago
Origin
Flag of USXPL (US)
ManufacturerEXOBOT
MissionOperational Commercial Communications
Bus & MotorCUBESAT 6U, Unknown motor
Mass12 kg wet, 12 kg dry
Launch date (UTC)
2024-12-21 (2 months ago)
Launch vehicle
FALCON 9
Launch site
Air Force Western Test Range (AFWTR)
Object type
Payload
Rocket body
Debris
Shape & HBRBox, 0.05 m
Radar Cross Section0.004 m², Medium (>0.1 m² and < 1m²)

Expand to show TLE details & history

TLE from 19 hours ago
0 XCUBE-1
1 62400U 24247Z   25046.73306369  .00009155  00000-0  42713-3 0  9995
2 62400  44.9946  57.5138 0004501 302.4076  57.6368 15.20193403  8709
Epoch: 2025-02-15T17:35Z
Definitive object data (Epoch: 2025-02-15T17:35:36.702Z)
Latitude-0.00006°
Longitude7.63457°
Altitude503.598 km
Speed7.615 km/s
True Right ascension03h 50m 03s
True Declination0° 00' 00"
Sunlit
Object was in daylight at TLE epoch
Visualization TLE readout
Latitude-45.152°
Longitude-86.16319°
Altitude517.12 km
Speed7.607 km/s
Apparent Right ascension00h 14m 59s
Apparent Declination-50° 00' 48"
Sunlit
Object is in daylight
Visualization observer readout
Local Sidereal Time14:54:00
Azimuth123.369° SE
Elevation-60.524°
Doppler factor1
Orbital elements
Apogee altitude509.961 km
Perigee altitude503.763 km
Semi-major axis6,884.999 km
Eccentricity0.0004501
Inclination44.9946°
RAAN57.5138°
Arg. of periapsis302.4076°
True anomaly57.68038°
Mean anomaly57.6368°
Eccentric anomaly57.65859°
Mean motion3.79916 °/min
BSTAR0.00042713
Orbital period94.76 mins
Loading maneuver chart data...
Loading historical data...
Loading historical data...
Loading historical data...
Loading historical data...
Loading historical data...
Loading historical data...
Loading historical data...

XCUBE-1 Visibility forecast

Observer location: undefined°, undefined

Span
Click to sort rows by Start time (UTC) header in descending order
Start Az.
Max El. time (UTC)
Max El. Az.
Max El.
End time (UTC)
End Az.
6 mins2025-02-17 02:53:31.548Z196.169° SSW2025-02-17 02:56:31.548Z136.582° SSE23.585°2025-02-17 02:59:31.548Z85.844° E
6 mins2025-02-17 04:32:31.548Z256.33° W2025-02-17 04:35:31.548Z5.234° NNE43.222°2025-02-17 04:38:31.548Z63.116° ENE
6 mins2025-02-17 06:12:31.548Z296.883° NW2025-02-17 06:14:31.548Z339.729° N30.771°2025-02-17 06:18:31.548Z66.932° ENE
5 mins2025-02-17 07:52:31.548Z305.685° NW2025-02-17 07:54:31.548Z4.114° NNE39.338°2025-02-17 07:57:31.548Z91.536° ESE
6 mins2025-02-17 09:31:31.548Z273.467° WNW2025-02-17 09:33:31.548Z229.443° WSW31.489°2025-02-17 09:37:31.548Z143.944° SSE
|